User: anonymous   Login
Location: Caltech
(34.1382°N, 118.1253°W)
Time: 03:18:11
(UTC-07:00)
Language:

Cosmos 1833 - Orbit

View from above orbital plane
View from above orbital plane
View from above satellite
View from above satellite

Ground track
Ground track

The orbit data is extracted from the following two-line orbital elements,

1 17589U 87027A   17175.42489883 -.00000168 +00000-0 -64095-4 0  9996
2 17589 070.9215 169.5561 0031182 299.2327 060.5677 14.12904033561097
Epoch (UTC): 24 June 2017 10:11:51
Eccentricity: 0.0031182
inclination: 70.9215°
perigee height: 827 km
apogee height: 872 km
right ascension of ascending node: 169.5561°
argument of perigee: 299.2327°
revolutions per day: 14.12904033
mean anomaly at epoch: 60.5677°
orbit number at epoch: 56109

The dashed part of the orbit path shows where the satellite is in the earth's shadow,  

DLR